Tiempo cada hora Godziszewy

Hoy, 4 Agosto, Miércoles

Tiempo Temperatura Precipitaciones Viento Presión Humedad
00:00 +18°C° 0 mm 1 mps 749 mmHg 62%
01:00 +18°C° 0 mm 1 mps 749 mmHg 61%
02:00 +18°C° 0 mm 1 mps 749 mmHg 63%
03:00 +16°C° 0 mm 1 mps 749 mmHg 65%
04:00 +16°C° 0 mm 1 mps 749 mmHg 66%
05:00 +16°C° 0.1 mm 1 mps 749 mmHg 68%
06:00 +18°C° 0.1 mm 1 mps 749 mmHg 70%
07:00 +18°C° 0.1 mm 1 mps 749 mmHg 72%
08:00 +17°C° 0.1 mm 2 mps 749 mmHg 74%
09:00 +17°C° 0.1 mm 2 mps 750 mmHg 77%
10:00 +17°C° 0.1 mm 2 mps 750 mmHg 79%
11:00 +18°C° 0.2 mm 2 mps 750 mmHg 78%
12:00 +18°C° 0.2 mm 2 mps 749 mmHg 77%
13:00 +19°C° 0.2 mm 2 mps 749 mmHg 75%
14:00 +19°C° 0.7 mm 2 mps 749 mmHg 74%
15:00 +19°C° 0.7 mm 2 mps 749 mmHg 73%
16:00 +20°C° 0.7 mm 2 mps 749 mmHg 72%
17:00 +19°C° 0.2 mm 2 mps 749 mmHg 75%
18:00 +18°C° 0.2 mm 2 mps 749 mmHg 79%
19:00 +18°C° 0.2 mm 2 mps 749 mmHg 83%
20:00 +17°C° 0 mm 2 mps 749 mmHg 86%
21:00 +16°C° 0 mm 2 mps 749 mmHg 89%
22:00 +15°C° 0 mm 2 mps 749 mmHg 92%
23:00 +15°C° 0 mm 2 mps 749 mmHg 92%

Mañana, 5 Agosto, Jueves

Tiempo Temperatura Precipitaciones Viento Presión Humedad
00:00 +15°C° 0 mm 2 mps 749 mmHg 93%
01:00 +14°C° 0 mm 2 mps 749 mmHg 93%
02:00 +14°C° 0 mm 2 mps 749 mmHg 93%
03:00 +14°C° 0 mm 2 mps 749 mmHg 93%
04:00 +14°C° 0 mm 2 mps 749 mmHg 93%
05:00 +15°C° 0 mm 2 mps 749 mmHg 89%
06:00 +16°C° 0 mm 2 mps 749 mmHg 85%
07:00 +17°C° 0 mm 2 mps 749 mmHg 80%
08:00 +18°C° 0 mm 3 mps 749 mmHg 73%
09:00 +20°C° 0 mm 3 mps 748 mmHg 65%
10:00 +21°C° 0 mm 3 mps 748 mmHg 58%
11:00 +22°C° 0 mm 3 mps 748 mmHg 54%
12:00 +24°C° 0 mm 3 mps 747 mmHg 50%
13:00 +25°C° 0 mm 4 mps 747 mmHg 46%
14:00 +24°C° 0 mm 3 mps 747 mmHg 51%
15:00 +22°C° 0 mm 3 mps 747 mmHg 55%
16:00 +21°C° 0 mm 3 mps 747 mmHg 59%
17:00 +21°C° 0 mm 3 mps 746 mmHg 62%
18:00 +20°C° 0 mm 3 mps 746 mmHg 64%
19:00 +19°C° 0 mm 3 mps 746 mmHg 67%
20:00 +19°C° 0 mm 3 mps 746 mmHg 70%
21:00 +18°C° 0 mm 2 mps 745 mmHg 72%
22:00 +17°C° 0 mm 2 mps 745 mmHg 75%
23:00 +17°C° 0.1 mm 3 mps 745 mmHg 77%

Pasado mañana, 6 Agosto, Viernes

Tiempo Temperatura Precipitaciones Viento Presión Humedad
00:00 +17°C° 0.1 mm 3 mps 745 mmHg 80%
01:00 +16°C° 0.1 mm 3 mps 745 mmHg 82%
02:00 +16°C° 0.4 mm 3 mps 744 mmHg 83%
03:00 +16°C° 0.4 mm 3 mps 744 mmHg 84%
04:00 +16°C° 0.4 mm 3 mps 744 mmHg 85%
05:00 +16°C° 0.2 mm 3 mps 744 mmHg 84%
06:00 +16°C° 0.2 mm 3 mps 744 mmHg 83%
07:00 +16°C° 0.2 mm 3 mps 744 mmHg 82%
08:00 +16°C° 0.2 mm 3 mps 744 mmHg 81%
09:00 +16°C° 0.2 mm 3 mps 744 mmHg 81%
10:00 +16°C° 0.2 mm 3 mps 744 mmHg 81%
11:00 +16°C° 0.1 mm 3 mps 744 mmHg 81%
12:00 +16°C° 0.1 mm 3 mps 744 mmHg 82%
13:00 +16°C° 0.1 mm 3 mps 744 mmHg 83%
14:00 +16°C° 0.2 mm 2 mps 744 mmHg 85%
15:00 +16°C° 0.2 mm 2 mps 744 mmHg 88%
16:00 +16°C° 0.2 mm 2 mps 744 mmHg 90%
17:00 +15°C° 0.2 mm 2 mps 744 mmHg 91%
18:00 +15°C° 0.2 mm 2 mps 744 mmHg 91%
19:00 +15°C° 0.2 mm 2 mps 745 mmHg 92%
20:00 +15°C° 0.1 mm 2 mps 745 mmHg 92%
21:00 +15°C° 0.1 mm 2 mps 745 mmHg 91%
22:00 +15°C° 0.1 mm 2 mps 745 mmHg 91%
23:00 +15°C° 0 mm 2 mps 745 mmHg 91%

7 Agosto, Sábado

Tiempo Temperatura Precipitaciones Viento Presión Humedad
00:00 +15°C° 0 mm 2 mps 745 mmHg 91%
01:00 +15°C° 0 mm 2 mps 745 mmHg 91%
02:00 +14°C° 0 mm 2 mps 745 mmHg 91%
03:00 +13°C° 0 mm 3 mps 745 mmHg 92%
04:00 +13°C° 0 mm 3 mps 745 mmHg 92%
05:00 +14°C° 0 mm 3 mps 745 mmHg 87%
06:00 +16°C° 0 mm 3 mps 746 mmHg 81%
07:00 +17°C° 0 mm 3 mps 746 mmHg 76%
08:00 +18°C° 0 mm 3 mps 746 mmHg 68%
09:00 +20°C° 0 mm 3 mps 746 mmHg 61%
10:00 +22°C° 0 mm 3 mps 746 mmHg 53%
11:00 +24°C° 0 mm 3 mps 746 mmHg 49%
12:00 +25°C° 0 mm 3 mps 746 mmHg 46%
13:00 +26°C° 0 mm 4 mps 746 mmHg 43%
14:00 +26°C° 0 mm 4 mps 746 mmHg 45%
15:00 +26°C° 0 mm 4 mps 746 mmHg 47%
16:00 +26°C° 0 mm 4 mps 746 mmHg 50%
17:00 +25°C° 0 mm 3 mps 746 mmHg 55%
18:00 +24°C° 0 mm 3 mps 746 mmHg 59%
19:00 +21°C° 0 mm 3 mps 746 mmHg 64%
20:00 +21°C° 0 mm 3 mps 746 mmHg 65%
21:00 +20°C° 0 mm 3 mps 746 mmHg 67%
22:00 +19°C° 0 mm 3 mps 746 mmHg 68%
23:00 +19°C° 0 mm 3 mps 746 mmHg 70%

8 Agosto, Domingo

Tiempo Temperatura Precipitaciones Viento Presión Humedad
00:00 +19°C° 0 mm 3 mps 746 mmHg 71%
01:00 +19°C° 0 mm 3 mps 746 mmHg 72%
02:00 +19°C° 0.1 mm 3 mps 746 mmHg 75%
03:00 +18°C° 0.1 mm 2 mps 746 mmHg 77%
04:00 +18°C° 0.1 mm 2 mps 745 mmHg 80%
05:00 +19°C° 0.5 mm 1 mps 746 mmHg 83%
06:00 +19°C° 0.5 mm 1 mps 746 mmHg 86%
07:00 +19°C° 0.5 mm 1 mps 746 mmHg 89%
08:00 +19°C° 0.1 mm 2 mps 746 mmHg 86%
09:00 +20°C° 0.1 mm 3 mps 747 mmHg 83%
10:00 +21°C° 0.1 mm 4 mps 747 mmHg 81%
11:00 +22°C° 0 mm 4 mps 748 mmHg 74%
12:00 +23°C° 0 mm 5 mps 748 mmHg 67%
13:00 +25°C° 0 mm 5 mps 749 mmHg 60%
14:00 +26°C° 0 mm 5 mps 749 mmHg 55%
15:00 +26°C° 0 mm 4 mps 749 mmHg 50%
16:00 +27°C° 0 mm 4 mps 749 mmHg 45%
17:00 +25°C° 0 mm 4 mps 750 mmHg 50%
18:00 +24°C° 0 mm 3 mps 750 mmHg 56%
19:00 +21°C° 0 mm 3 mps 750 mmHg 61%
20:00 +21°C° 0 mm 3 mps 751 mmHg 62%
21:00 +20°C° 0 mm 3 mps 751 mmHg 63%
22:00 +19°C° 0 mm 3 mps 751 mmHg 64%
23:00 +19°C° 0 mm 3 mps 751 mmHg 64%

9 Agosto, Lunes

Tiempo Temperatura Precipitaciones Viento Presión Humedad
00:00 +18°C° 0 mm 3 mps 752 mmHg 65%
01:00 +18°C° 0 mm 3 mps 752 mmHg 65%
02:00 +17°C° 0 mm 3 mps 752 mmHg 67%
03:00 +17°C° 0 mm 2 mps 752 mmHg 70%
04:00 +16°C° 0 mm 2 mps 752 mmHg 72%
05:00 +17°C° 0 mm 2 mps 752 mmHg 69%
06:00 +19°C° 0 mm 2 mps 753 mmHg 67%
07:00 +20°C° 0 mm 2 mps 753 mmHg 64%
08:00 +21°C° 0 mm 3 mps 753 mmHg 59%
09:00 +24°C° 0 mm 3 mps 753 mmHg 55%
10:00 +25°C° 0 mm 3 mps 753 mmHg 50%
11:00 +26°C° 0 mm 3 mps 753 mmHg 47%
12:00 +27°C° 0 mm 4 mps 753 mmHg 45%
13:00 +27°C° 0 mm 4 mps 753 mmHg 42%
14:00 +27°C° 0 mm 4 mps 753 mmHg 42%
15:00 +27°C° 0 mm 3 mps 753 mmHg 42%
16:00 +26°C° 0 mm 3 mps 752 mmHg 42%
17:00 +25°C° 0 mm 3 mps 752 mmHg 45%
18:00 +24°C° 0 mm 2 mps 752 mmHg 49%
19:00 +23°C° 0 mm 2 mps 752 mmHg 52%
20:00 +21°C° 0 mm 2 mps 752 mmHg 53%
21:00 +22°C° 0 mm 1 mps 752 mmHg 54%
22:00 +21°C° 0 mm 1 mps 752 mmHg 54%
23:00 +21°C° 0 mm 1 mps 752 mmHg 55%
Mostrar más

Necesitamos Su Consentimiento

Meteoprog y nuestros Proveedores de Servicios pueden almacenar y acceder a sus datos personales como cookies, identificadores de dispositivo u otras tecnologías similares de su dispositivo y procesar dichos datos para personalizar contenido y anuncios, además de ofrecer funciones de redes sociales y analizar el tráfico.

  • Almacenar y/o acceder a información en su dispositivo

    Se puede almacenar o acceder a cookies, identificadores de dispositivo u otra información de su dispositivo para los fines anteriormente indicados.

  • Anuncios y contenido personalizados, medición de anuncios y contenido, percepciones del público, y desarrollo de productos

    Los anuncios y el contenido pueden personalizarse en base a su perfil. Se pueden añadir más datos para personalizar mejor los anuncios y contenidos. Se puede medir el rendimiento de los anuncios y contenidos. Se puede obtener la percepción sobre el público que ha visto los anuncios y contenidos. Dichos datos pueden usarse para desarrollar o mejorar la experiencia del usuario, sistemas y software.

Al hacer clic en ‘Estoy De Acuerdo’ usted permitirá el uso de las cookies, identificadores de dispositivo, balizas web u otras tecnologías similares indicadas. Su configuración puede cambiarse desde el navegador de su dispositivo.

Para ciertos fines, los intereses legítimos pueden ser considerados por encima del consentimiento. Puede leer más sobre ello en nuestra Política de Privacidad y Cookies.